Location: Marse
(42.1502°N, 110.9866°W)
Time: 02:11:55
(UTC+00:00)

BEESAT - Pass Details

Date: 01 July 2022
Orbit: 700 x 706 km, 98.6° (Epoch: 16 August)

Event Time Altitude Azimuth Distance (km) Brightness Sun altitude
Rises 03:46:16 0° 14° (NNE) 3,104 ? -7.1°
Reaches altitude 10° 03:48:32 10° 16° (NNE) 2,182 ? -7.4°
Maximum altitude 03:53:19 80° 103° (ESE) 721 ? -8.1°
Drops below altitude 10° 03:58:05 10° 191° (S) 2,169 ? -8.8°
Sets 04:00:20 0° 192° (SSW) 3,084 ? -9.1°
